Year,Month,Day,Hour,Minute,Value (Times are PST for temperature in C)
2017,10,31,00,00,3.90
2017,10,31,00,01,3.90
2017,10,31,00,02,3.90
2017,10,31,00,03,3.90
2017,10,31,00,04,3.90
2017,10,31,00,05,3.90
2017,10,31,00,06,3.90
2017,10,31,00,07,3.90
2017,10,31,00,08,3.90
2017,10,31,00,09,3.90
2017,10,31,00,10,3.90
2017,10,31,00,11,3.90
2017,10,31,00,12,3.90
2017,10,31,00,13,3.90
2017,10,31,00,14,4.00
2017,10,31,00,15,4.00
2017,10,31,00,16,4.00
2017,10,31,00,17,4.00
2017,10,31,00,18,4.00
2017,10,31,00,19,4.00
2017,10,31,00,20,4.00
2017,10,31,00,21,4.10
2017,10,31,00,22,4.10
2017,10,31,00,23,4.10
2017,10,31,00,24,4.10
2017,10,31,00,25,4.10
2017,10,31,00,26,4.10
2017,10,31,00,27,4.10
2017,10,31,00,28,4.10
2017,10,31,00,29,4.10
2017,10,31,00,30,4.10
2017,10,31,00,31,4.10
2017,10,31,00,32,4.10
2017,10,31,00,33,4.10
2017,10,31,00,34,4.10
2017,10,31,00,35,4.10
2017,10,31,00,36,4.10
2017,10,31,00,37,4.10
2017,10,31,00,38,4.10
2017,10,31,00,39,4.10
2017,10,31,00,40,4.10
2017,10,31,00,41,4.10
2017,10,31,00,42,4.10
2017,10,31,00,43,4.10
2017,10,31,00,44,4.00
2017,10,31,00,45,4.00
2017,10,31,00,46,4.00
2017,10,31,00,47,4.00
2017,10,31,00,48,3.90
2017,10,31,00,49,3.90
2017,10,31,00,50,3.90
2017,10,31,00,51,3.90
2017,10,31,00,52,3.90
2017,10,31,00,53,3.90
2017,10,31,00,54,3.80
2017,10,31,00,55,3.80
2017,10,31,00,56,3.80
2017,10,31,00,57,3.80
2017,10,31,00,58,3.80
2017,10,31,00,59,3.80
2017,10,31,01,00,3.80
2017,10,31,01,01,3.80
2017,10,31,01,02,3.80
2017,10,31,01,03,3.80
2017,10,31,01,04,3.80
2017,10,31,01,05,3.80
2017,10,31,01,06,3.80
2017,10,31,01,07,3.80
2017,10,31,01,08,3.90
2017,10,31,01,09,3.90
2017,10,31,01,10,3.90
2017,10,31,01,11,3.90
2017,10,31,01,12,3.90
2017,10,31,01,13,3.90
2017,10,31,01,14,3.90
2017,10,31,01,15,3.90
2017,10,31,01,16,3.90
2017,10,31,01,17,3.90
2017,10,31,01,18,4.00
2017,10,31,01,19,4.00
2017,10,31,01,20,4.00
2017,10,31,01,21,4.10
2017,10,31,01,22,4.10
2017,10,31,01,23,4.10
2017,10,31,01,24,4.10
2017,10,31,01,25,4.10
2017,10,31,01,26,4.10
2017,10,31,01,27,4.10
2017,10,31,01,28,4.10
2017,10,31,01,29,4.10
2017,10,31,01,30,4.00
2017,10,31,01,31,4.00
2017,10,31,01,32,4.00
2017,10,31,01,33,4.00
2017,10,31,01,34,3.90
2017,10,31,01,35,4.00
2017,10,31,01,36,3.90
2017,10,31,01,37,3.90
2017,10,31,01,38,3.90
2017,10,31,01,39,3.90
2017,10,31,01,40,3.80
2017,10,31,01,41,3.80
2017,10,31,01,42,3.80
2017,10,31,01,43,3.80
2017,10,31,01,44,3.80
2017,10,31,01,45,3.80
2017,10,31,01,46,3.80
2017,10,31,01,47,3.80
2017,10,31,01,48,3.80
2017,10,31,01,49,3.80
2017,10,31,01,50,3.80
2017,10,31,01,51,3.80
2017,10,31,01,52,3.80
2017,10,31,01,53,3.80
2017,10,31,01,54,3.80
2017,10,31,01,55,3.80
2017,10,31,01,56,3.80
2017,10,31,01,57,3.80
2017,10,31,01,58,3.80
2017,10,31,01,59,3.90
2017,10,31,02,00,3.90
2017,10,31,02,01,3.80
2017,10,31,02,02,3.80
2017,10,31,02,03,3.80
2017,10,31,02,04,3.80
2017,10,31,02,05,3.80
2017,10,31,02,06,3.80
2017,10,31,02,07,3.80
2017,10,31,02,08,3.80
2017,10,31,02,09,3.80
2017,10,31,02,10,3.80
2017,10,31,02,11,3.80
2017,10,31,02,12,3.80
2017,10,31,02,13,3.80
2017,10,31,02,14,3.80
2017,10,31,02,15,3.80
2017,10,31,02,16,3.80
2017,10,31,02,17,3.80
2017,10,31,02,18,3.80
2017,10,31,02,19,3.80
2017,10,31,02,20,3.80
2017,10,31,02,21,3.80
2017,10,31,02,22,3.80
2017,10,31,02,23,3.80
2017,10,31,02,24,3.80
2017,10,31,02,25,3.80
2017,10,31,02,26,3.80
2017,10,31,02,27,3.80
2017,10,31,02,28,3.90
2017,10,31,02,29,3.90
2017,10,31,02,30,3.90
2017,10,31,02,31,3.90
2017,10,31,02,32,3.90
2017,10,31,02,33,3.90
2017,10,31,02,34,3.90
2017,10,31,02,35,3.90
2017,10,31,02,36,3.90
2017,10,31,02,37,3.90
2017,10,31,02,38,3.90
2017,10,31,02,39,3.90
2017,10,31,02,40,3.90
2017,10,31,02,41,3.90
2017,10,31,02,42,3.90
2017,10,31,02,43,3.90
2017,10,31,02,44,3.90
2017,10,31,02,45,3.80
2017,10,31,02,46,3.80
2017,10,31,02,47,3.80
2017,10,31,02,48,3.80
2017,10,31,02,49,3.80
2017,10,31,02,50,3.80
2017,10,31,02,51,3.80
2017,10,31,02,52,3.70
2017,10,31,02,53,3.70
2017,10,31,02,54,3.70
2017,10,31,02,55,3.70
2017,10,31,02,56,3.70
2017,10,31,02,57,3.70
2017,10,31,02,58,3.70
2017,10,31,02,59,3.60
2017,10,31,03,00,3.60
2017,10,31,03,01,3.60
2017,10,31,03,02,3.60
2017,10,31,03,03,3.60
2017,10,31,03,04,3.60
2017,10,31,03,05,3.60
2017,10,31,03,06,3.60
2017,10,31,03,07,3.70
2017,10,31,03,08,3.70
2017,10,31,03,09,3.70
2017,10,31,03,10,3.70
2017,10,31,03,11,3.70
2017,10,31,03,12,3.70
2017,10,31,03,13,3.70
2017,10,31,03,14,3.70
2017,10,31,03,15,3.70
2017,10,31,03,16,3.70
2017,10,31,03,17,3.80
2017,10,31,03,18,3.80
2017,10,31,03,19,3.80
2017,10,31,03,20,3.80
2017,10,31,03,21,3.80
2017,10,31,03,22,3.80
2017,10,31,03,23,3.80
2017,10,31,03,24,3.80
2017,10,31,03,25,3.80
2017,10,31,03,26,3.80
2017,10,31,03,27,3.80
2017,10,31,03,28,3.80
2017,10,31,03,29,3.80
2017,10,31,03,30,3.80
2017,10,31,03,31,3.80
2017,10,31,03,32,3.80
2017,10,31,03,33,3.80
2017,10,31,03,34,3.80
2017,10,31,03,35,3.80
2017,10,31,03,36,3.80
2017,10,31,03,37,3.80
2017,10,31,03,38,3.80
2017,10,31,03,39,3.80
2017,10,31,03,40,3.80
2017,10,31,03,41,3.80
2017,10,31,03,42,3.80
2017,10,31,03,43,3.80
2017,10,31,03,44,3.80
2017,10,31,03,45,3.80
2017,10,31,03,46,3.80
2017,10,31,03,47,3.80
2017,10,31,03,48,3.80
2017,10,31,03,49,3.80
2017,10,31,03,50,3.90
2017,10,31,03,51,3.90
2017,10,31,03,52,3.90
2017,10,31,03,53,3.90
2017,10,31,03,54,3.90
2017,10,31,03,55,3.90
2017,10,31,03,56,3.90
2017,10,31,03,57,3.90
2017,10,31,03,58,3.90
2017,10,31,03,59,3.90
2017,10,31,04,00,3.90
2017,10,31,04,01,3.90
2017,10,31,04,02,3.80
2017,10,31,04,03,3.80
2017,10,31,04,04,3.80
2017,10,31,04,05,3.80
2017,10,31,04,06,3.80
2017,10,31,04,07,3.80
2017,10,31,04,08,3.80
2017,10,31,04,09,3.80
2017,10,31,04,10,3.80
2017,10,31,04,11,3.80
2017,10,31,04,12,3.80
2017,10,31,04,13,3.80
2017,10,31,04,14,3.80
2017,10,31,04,15,3.80
2017,10,31,04,16,3.80
2017,10,31,04,17,3.80
2017,10,31,04,18,3.80
2017,10,31,04,19,3.80
2017,10,31,04,20,3.70
2017,10,31,04,21,3.80
2017,10,31,04,22,3.80
2017,10,31,04,23,3.80
2017,10,31,04,24,3.80
2017,10,31,04,25,3.80
2017,10,31,04,26,3.80
2017,10,31,04,27,3.70
2017,10,31,04,28,3.70
2017,10,31,04,29,3.70
2017,10,31,04,30,3.70
2017,10,31,04,31,3.70
2017,10,31,04,32,3.70
2017,10,31,04,33,3.70
2017,10,31,04,34,3.70
2017,10,31,04,35,3.80
2017,10,31,04,36,3.80
2017,10,31,04,37,3.80
2017,10,31,04,38,3.80
2017,10,31,04,39,3.80
2017,10,31,04,40,3.80
2017,10,31,04,41,3.80
2017,10,31,04,42,3.80
2017,10,31,04,43,3.80
2017,10,31,04,44,3.90
2017,10,31,04,45,3.90
2017,10,31,04,46,3.90
2017,10,31,04,47,3.90
2017,10,31,04,48,3.90
2017,10,31,04,49,3.90
2017,10,31,04,50,3.90
2017,10,31,04,51,3.90
2017,10,31,04,52,3.90
2017,10,31,04,53,3.90
2017,10,31,04,54,3.90
2017,10,31,04,55,3.90
2017,10,31,04,56,3.80
2017,10,31,04,57,3.80
2017,10,31,04,58,3.80
2017,10,31,04,59,3.80
2017,10,31,05,00,3.80
2017,10,31,05,01,3.80
2017,10,31,05,02,3.80
2017,10,31,05,03,3.80
2017,10,31,05,04,3.70
2017,10,31,05,05,3.70
2017,10,31,05,06,3.70
2017,10,31,05,07,3.70
2017,10,31,05,08,3.70
2017,10,31,05,09,3.70
2017,10,31,05,10,3.60
2017,10,31,05,11,3.60
2017,10,31,05,12,3.60
2017,10,31,05,13,3.60
2017,10,31,05,14,3.60
2017,10,31,05,15,3.50
2017,10,31,05,16,3.50
2017,10,31,05,17,3.50
2017,10,31,05,18,3.50
2017,10,31,05,19,3.50
2017,10,31,05,20,3.50
2017,10,31,05,21,3.50
2017,10,31,05,22,3.50
2017,10,31,05,23,3.50
2017,10,31,05,24,3.50
2017,10,31,05,25,3.60
2017,10,31,05,26,3.60
2017,10,31,05,27,3.60
2017,10,31,05,28,3.60
2017,10,31,05,29,3.60
2017,10,31,05,30,3.60
2017,10,31,05,31,3.60
2017,10,31,05,32,3.60
2017,10,31,05,33,3.60
2017,10,31,05,34,3.50
2017,10,31,05,35,3.50
2017,10,31,05,36,3.50
2017,10,31,05,37,3.40
2017,10,31,05,38,3.40
2017,10,31,05,39,3.40
2017,10,31,05,40,3.40
2017,10,31,05,41,3.40
2017,10,31,05,42,3.30
2017,10,31,05,43,3.30
2017,10,31,05,44,3.30
2017,10,31,05,45,3.30
2017,10,31,05,46,3.30
2017,10,31,05,47,3.30
2017,10,31,05,48,3.30
2017,10,31,05,49,3.30
2017,10,31,05,50,3.30
2017,10,31,05,51,3.40
2017,10,31,05,52,3.40
2017,10,31,05,53,3.40
2017,10,31,05,54,3.40
2017,10,31,05,55,3.40
2017,10,31,05,56,3.40
2017,10,31,05,57,3.40
2017,10,31,05,58,3.40
2017,10,31,05,59,3.40
2017,10,31,06,00,3.40
2017,10,31,06,01,3.40
2017,10,31,06,02,3.40
2017,10,31,06,03,3.40
2017,10,31,06,04,3.40
2017,10,31,06,05,3.40
2017,10,31,06,06,3.40
2017,10,31,06,07,3.40
2017,10,31,06,08,3.40
2017,10,31,06,09,3.40
2017,10,31,06,10,3.40
2017,10,31,06,11,3.40
2017,10,31,06,12,3.40
2017,10,31,06,13,3.40
2017,10,31,06,14,3.40
2017,10,31,06,15,3.40
2017,10,31,06,16,3.40
2017,10,31,06,17,3.30
2017,10,31,06,18,3.30
2017,10,31,06,19,3.30
2017,10,31,06,20,3.30
2017,10,31,06,21,3.30
2017,10,31,06,22,3.30
2017,10,31,06,23,3.30
2017,10,31,06,24,3.30
2017,10,31,06,25,3.30
2017,10,31,06,26,3.30
2017,10,31,06,27,3.30
2017,10,31,06,28,3.30
2017,10,31,06,29,3.30
2017,10,31,06,30,3.30
2017,10,31,06,31,3.30
2017,10,31,06,32,3.40
2017,10,31,06,33,3.40
2017,10,31,06,34,3.40
2017,10,31,06,35,3.40
2017,10,31,06,36,3.40
2017,10,31,06,37,3.40
2017,10,31,06,38,3.40
2017,10,31,06,39,3.50
2017,10,31,06,40,3.50
2017,10,31,06,41,3.50
2017,10,31,06,42,3.50
2017,10,31,06,43,3.50
2017,10,31,06,44,3.50
2017,10,31,06,45,3.50
2017,10,31,06,46,3.50
2017,10,31,06,47,3.50
2017,10,31,06,48,3.50
2017,10,31,06,49,3.50
2017,10,31,06,50,3.50
2017,10,31,06,51,3.50
2017,10,31,06,52,3.50
2017,10,31,06,53,3.50
2017,10,31,06,54,3.60
2017,10,31,06,55,3.60
2017,10,31,06,56,3.60
2017,10,31,06,57,3.60
2017,10,31,06,58,3.60
2017,10,31,06,59,3.60
2017,10,31,07,00,3.60
2017,10,31,07,01,3.60
2017,10,31,07,02,3.70
2017,10,31,07,03,3.70
2017,10,31,07,04,3.70
2017,10,31,07,05,3.70
2017,10,31,07,06,3.70
2017,10,31,07,07,3.70
2017,10,31,07,08,3.70
2017,10,31,07,09,3.70
2017,10,31,07,10,3.60
2017,10,31,07,11,3.60
2017,10,31,07,12,3.60
2017,10,31,07,13,3.60
2017,10,31,07,14,3.60
2017,10,31,07,15,3.60
2017,10,31,07,16,3.70
2017,10,31,07,17,3.70
2017,10,31,07,18,3.70
2017,10,31,07,19,3.70
2017,10,31,07,20,3.70
2017,10,31,07,21,3.70
2017,10,31,07,22,3.70
2017,10,31,07,23,3.70
2017,10,31,07,24,3.70
2017,10,31,07,25,3.70
2017,10,31,07,26,3.70
2017,10,31,07,27,3.70
2017,10,31,07,28,3.70
2017,10,31,07,29,3.70
2017,10,31,07,30,3.60
2017,10,31,07,31,3.60
2017,10,31,07,32,3.60
2017,10,31,07,33,3.50
2017,10,31,07,34,3.50
2017,10,31,07,35,3.50
2017,10,31,07,36,3.40
2017,10,31,07,37,3.40
2017,10,31,07,38,3.40
2017,10,31,07,39,3.40
2017,10,31,07,40,3.40
2017,10,31,07,41,3.40
2017,10,31,07,42,3.40
2017,10,31,07,43,3.40
2017,10,31,07,44,3.40
2017,10,31,07,45,3.40
2017,10,31,07,46,3.40
2017,10,31,07,47,3.40
2017,10,31,07,48,3.40
2017,10,31,07,49,3.40
2017,10,31,07,50,3.40
2017,10,31,07,51,3.40
2017,10,31,07,52,3.40
2017,10,31,07,53,3.40
2017,10,31,07,54,3.40
2017,10,31,07,55,3.40
2017,10,31,07,56,3.40
2017,10,31,07,57,3.50
2017,10,31,07,58,3.50
2017,10,31,07,59,3.50
2017,10,31,08,00,3.50
2017,10,31,08,01,3.50
2017,10,31,08,02,3.60
2017,10,31,08,03,3.60
2017,10,31,08,04,3.60
2017,10,31,08,05,3.60
2017,10,31,08,06,3.60
2017,10,31,08,07,3.60
2017,10,31,08,08,3.60
2017,10,31,08,09,3.70
2017,10,31,08,10,3.60
2017,10,31,08,11,3.60
2017,10,31,08,12,3.60
2017,10,31,08,13,3.60
2017,10,31,08,14,3.60
2017,10,31,08,15,3.70
2017,10,31,08,16,3.70
2017,10,31,08,17,3.60
2017,10,31,08,18,3.60
2017,10,31,08,19,3.60
2017,10,31,08,20,3.60
2017,10,31,08,21,3.60
2017,10,31,08,22,3.60
2017,10,31,08,23,3.60
2017,10,31,08,24,3.60
2017,10,31,08,25,3.60
2017,10,31,08,26,3.60
2017,10,31,08,27,3.60
2017,10,31,08,28,3.60
2017,10,31,08,29,3.60
2017,10,31,08,30,3.60
2017,10,31,08,31,3.60
2017,10,31,08,32,3.50
2017,10,31,08,33,3.50
2017,10,31,08,34,3.50
2017,10,31,08,35,3.50
2017,10,31,08,36,3.50
2017,10,31,08,37,3.50
2017,10,31,08,38,3.50
2017,10,31,08,39,3.50
2017,10,31,08,40,3.50
2017,10,31,08,41,3.50
2017,10,31,08,42,3.50
2017,10,31,08,43,3.50
2017,10,31,08,44,3.50
2017,10,31,08,45,3.50
2017,10,31,08,46,3.60
2017,10,31,08,47,3.60
2017,10,31,08,48,3.60
2017,10,31,08,49,3.60
2017,10,31,08,50,3.60
2017,10,31,08,51,3.60
2017,10,31,08,52,3.60
2017,10,31,08,53,3.60
2017,10,31,08,54,3.60
2017,10,31,08,55,3.60
2017,10,31,08,56,3.60
2017,10,31,08,57,3.60
2017,10,31,08,58,3.60
2017,10,31,08,59,3.60
2017,10,31,09,00,3.70
2017,10,31,09,01,3.70
2017,10,31,09,02,3.70
2017,10,31,09,03,3.70
2017,10,31,09,04,3.70
2017,10,31,09,05,3.80
2017,10,31,09,06,3.80
2017,10,31,09,07,3.80
2017,10,31,09,08,3.80
2017,10,31,09,09,3.80
2017,10,31,09,10,3.80
2017,10,31,09,11,3.90
2017,10,31,09,12,3.90
2017,10,31,09,13,3.90
2017,10,31,09,14,4.00
2017,10,31,09,15,4.00
2017,10,31,09,16,4.10
2017,10,31,09,17,4.10
2017,10,31,09,18,4.10
2017,10,31,09,19,4.10
2017,10,31,09,20,4.10
2017,10,31,09,21,4.10
2017,10,31,09,22,4.10
2017,10,31,09,23,4.10
2017,10,31,09,24,4.10
2017,10,31,09,25,4.10
2017,10,31,09,26,4.10
2017,10,31,09,27,4.10
2017,10,31,09,28,4.10
2017,10,31,09,29,4.10
2017,10,31,09,30,4.10
2017,10,31,09,31,4.10
2017,10,31,09,32,4.10
2017,10,31,09,33,4.20
2017,10,31,09,34,4.20
2017,10,31,09,35,4.20
2017,10,31,09,36,4.20
2017,10,31,09,37,4.20
2017,10,31,09,38,4.20
2017,10,31,09,39,4.30
2017,10,31,09,40,4.30
2017,10,31,09,41,4.30
2017,10,31,09,42,4.30
2017,10,31,09,43,4.40
2017,10,31,09,44,4.40
2017,10,31,09,45,4.40
2017,10,31,09,46,4.50
2017,10,31,09,47,4.50
2017,10,31,09,48,4.60
2017,10,31,09,49,4.60
2017,10,31,09,50,4.70
2017,10,31,09,51,4.80
2017,10,31,09,52,4.80
2017,10,31,09,53,4.80
2017,10,31,09,54,4.90
2017,10,31,09,55,4.90
2017,10,31,09,56,5.00
2017,10,31,09,57,5.00
2017,10,31,09,58,5.10
2017,10,31,09,59,5.10
2017,10,31,10,00,5.10
2017,10,31,10,01,5.20
2017,10,31,10,02,5.20
2017,10,31,10,03,5.20
2017,10,31,10,04,5.30
2017,10,31,10,05,5.30
2017,10,31,10,06,5.30
2017,10,31,10,07,5.30
2017,10,31,10,08,5.40
2017,10,31,10,09,5.40
2017,10,31,10,10,5.40
2017,10,31,10,11,5.40
2017,10,31,10,12,5.40
2017,10,31,10,13,5.50
2017,10,31,10,14,5.50
2017,10,31,10,15,5.60
2017,10,31,10,16,5.60
2017,10,31,10,17,5.60
2017,10,31,10,18,5.60
2017,10,31,10,19,5.70
2017,10,31,10,20,5.70
2017,10,31,10,21,5.70
2017,10,31,10,22,5.80
2017,10,31,10,23,5.80
2017,10,31,10,24,5.80
2017,10,31,10,25,5.80
2017,10,31,10,26,5.90
2017,10,31,10,27,5.90
2017,10,31,10,28,5.90
2017,10,31,10,29,6.00
2017,10,31,10,30,6.00
2017,10,31,10,31,6.00
2017,10,31,10,32,6.10
2017,10,31,10,33,6.10
2017,10,31,10,34,6.10
2017,10,31,10,35,6.20
2017,10,31,10,36,6.20
2017,10,31,10,37,6.20
2017,10,31,10,38,6.30
2017,10,31,10,39,6.30
2017,10,31,10,40,6.40
2017,10,31,10,41,6.50
2017,10,31,10,42,6.60
2017,10,31,10,43,6.70
2017,10,31,10,44,6.70
2017,10,31,10,45,6.80
2017,10,31,10,46,6.90
2017,10,31,10,47,7.00
2017,10,31,10,48,7.10
2017,10,31,10,49,7.20
2017,10,31,10,50,7.20
2017,10,31,10,51,7.20
2017,10,31,10,52,7.30
2017,10,31,10,53,7.30
2017,10,31,10,54,7.40
2017,10,31,10,55,7.50
2017,10,31,10,56,7.50
2017,10,31,10,57,7.60
2017,10,31,10,58,7.70
2017,10,31,10,59,7.70
2017,10,31,11,00,7.80
2017,10,31,11,01,7.90
2017,10,31,11,02,7.90
2017,10,31,11,03,8.00
2017,10,31,11,04,8.00
2017,10,31,11,05,8.10
2017,10,31,11,06,8.10
2017,10,31,11,07,8.10
2017,10,31,11,08,8.10
2017,10,31,11,09,8.10
2017,10,31,11,10,8.10
2017,10,31,11,11,8.10
2017,10,31,11,12,8.10
2017,10,31,11,13,8.20
2017,10,31,11,14,8.20
2017,10,31,11,15,8.20
2017,10,31,11,16,8.20
2017,10,31,11,17,8.30
2017,10,31,11,18,8.30
2017,10,31,11,19,8.40
2017,10,31,11,20,8.60
2017,10,31,11,21,8.70
2017,10,31,11,22,8.90
2017,10,31,11,23,9.00
2017,10,31,11,24,9.20
2017,10,31,11,25,9.30
2017,10,31,11,26,9.40
2017,10,31,11,27,9.50
2017,10,31,11,28,9.60
2017,10,31,11,29,9.70
2017,10,31,11,30,9.70
2017,10,31,11,31,9.80
2017,10,31,11,32,9.90
2017,10,31,11,33,10.00
2017,10,31,11,34,10.00
2017,10,31,11,35,10.10
2017,10,31,11,36,10.20
2017,10,31,11,37,10.30
2017,10,31,11,38,10.40
2017,10,31,11,39,10.40
2017,10,31,11,40,10.50
2017,10,31,11,41,10.60
2017,10,31,11,42,10.70
2017,10,31,11,43,10.80
2017,10,31,11,44,10.90
2017,10,31,11,45,11.00
2017,10,31,11,46,11.00
2017,10,31,11,47,11.10
2017,10,31,11,48,11.20
2017,10,31,11,49,11.20
2017,10,31,11,50,11.30
2017,10,31,11,51,11.30
2017,10,31,11,52,11.30
2017,10,31,11,53,11.40
2017,10,31,11,54,11.40
2017,10,31,11,55,11.40
2017,10,31,11,56,11.40
2017,10,31,11,57,11.40
2017,10,31,11,58,11.40
2017,10,31,11,59,11.30
2017,10,31,12,00,11.30
2017,10,31,12,01,11.30
2017,10,31,12,02,11.30
2017,10,31,12,03,11.30
2017,10,31,12,04,11.30
2017,10,31,12,05,11.30
2017,10,31,12,06,11.40
2017,10,31,12,07,11.40
2017,10,31,12,08,11.50
2017,10,31,12,09,11.50
2017,10,31,12,10,11.60
2017,10,31,12,11,11.60
2017,10,31,12,12,11.60
2017,10,31,12,13,11.60
2017,10,31,12,14,11.70
2017,10,31,12,15,11.70
2017,10,31,12,16,11.70
2017,10,31,12,17,11.70
2017,10,31,12,18,11.60
2017,10,31,12,19,11.60
2017,10,31,12,20,11.50
2017,10,31,12,21,11.50
2017,10,31,12,22,11.40
2017,10,31,12,23,11.40
2017,10,31,12,24,11.40
2017,10,31,12,25,11.40
2017,10,31,12,26,11.40
2017,10,31,12,27,11.40
2017,10,31,12,28,11.30
2017,10,31,12,29,11.20
2017,10,31,12,30,11.10
2017,10,31,12,31,11.00
2017,10,31,12,32,11.00
2017,10,31,12,33,10.90
2017,10,31,12,34,10.80
2017,10,31,12,35,10.80
2017,10,31,12,36,10.80
2017,10,31,12,37,10.80
2017,10,31,12,38,10.80
2017,10,31,12,39,10.80
2017,10,31,12,40,10.80
2017,10,31,12,41,10.80
2017,10,31,12,42,10.80
2017,10,31,12,43,10.90
2017,10,31,12,44,10.90
2017,10,31,12,45,10.90
2017,10,31,12,46,10.80
2017,10,31,12,47,10.80
2017,10,31,12,48,10.80
2017,10,31,12,49,10.90
2017,10,31,12,50,10.90
2017,10,31,12,51,11.00
2017,10,31,12,52,11.10
2017,10,31,12,53,11.10
2017,10,31,12,54,11.20
2017,10,31,12,55,11.30
2017,10,31,12,56,11.30
2017,10,31,12,57,11.40
2017,10,31,12,58,11.40
2017,10,31,12,59,11.50
2017,10,31,13,00,11.50
2017,10,31,13,01,11.50
2017,10,31,13,02,11.50
2017,10,31,13,03,11.50
2017,10,31,13,04,11.40
2017,10,31,13,05,11.40
2017,10,31,13,06,11.40
2017,10,31,13,07,11.30
2017,10,31,13,08,11.30
2017,10,31,13,09,11.30
2017,10,31,13,10,11.30
2017,10,31,13,11,11.30
2017,10,31,13,12,11.30
2017,10,31,13,13,11.30
2017,10,31,13,14,11.30
2017,10,31,13,15,11.30
2017,10,31,13,16,11.30
2017,10,31,13,17,11.30
2017,10,31,13,18,11.30
2017,10,31,13,19,11.40
2017,10,31,13,20,11.40
2017,10,31,13,21,11.40
2017,10,31,13,22,11.40
2017,10,31,13,23,11.50
2017,10,31,13,24,11.50
2017,10,31,13,25,11.50
2017,10,31,13,26,11.60
2017,10,31,13,27,11.60
2017,10,31,13,28,11.60
2017,10,31,13,29,11.60
2017,10,31,13,30,11.60
2017,10,31,13,31,11.50
2017,10,31,13,32,11.50
2017,10,31,13,33,11.40
2017,10,31,13,34,11.40
2017,10,31,13,35,11.40
2017,10,31,13,36,11.40
2017,10,31,13,37,11.40
2017,10,31,13,38,11.30
2017,10,31,13,39,11.30
2017,10,31,13,40,11.30
2017,10,31,13,41,11.40
2017,10,31,13,42,11.50
2017,10,31,13,43,11.50
2017,10,31,13,44,11.60
2017,10,31,13,45,11.70
2017,10,31,13,46,11.80
2017,10,31,13,47,11.80
2017,10,31,13,48,11.90
2017,10,31,13,49,12.00
2017,10,31,13,50,12.10
2017,10,31,13,51,12.20
2017,10,31,13,52,12.20
2017,10,31,13,53,12.20
2017,10,31,13,54,12.20
2017,10,31,13,55,12.20
2017,10,31,13,56,12.20
2017,10,31,13,57,12.20
2017,10,31,13,58,12.20
2017,10,31,13,59,12.30
2017,10,31,14,00,12.30
2017,10,31,14,01,12.30
2017,10,31,14,02,12.30
2017,10,31,14,03,12.30
2017,10,31,14,04,12.20
2017,10,31,14,05,12.20
2017,10,31,14,06,12.20
2017,10,31,14,07,12.20
2017,10,31,14,08,12.20
2017,10,31,14,09,12.20
2017,10,31,14,10,12.20
2017,10,31,14,11,12.20
2017,10,31,14,12,12.30
2017,10,31,14,13,12.30
2017,10,31,14,14,12.30
2017,10,31,14,15,12.40
2017,10,31,14,16,12.40
2017,10,31,14,17,12.40
2017,10,31,14,18,12.50
2017,10,31,14,19,12.50
2017,10,31,14,20,12.50
2017,10,31,14,21,12.50
2017,10,31,14,22,12.50
2017,10,31,14,23,12.50
2017,10,31,14,24,12.60
2017,10,31,14,25,12.60
2017,10,31,14,26,12.60
2017,10,31,14,27,12.60
2017,10,31,14,28,12.50
2017,10,31,14,29,12.50
2017,10,31,14,30,12.50
2017,10,31,14,31,12.50
2017,10,31,14,32,12.50
2017,10,31,14,33,12.50
2017,10,31,14,34,12.50
2017,10,31,14,35,12.50
2017,10,31,14,36,12.40
2017,10,31,14,37,12.40
2017,10,31,14,38,12.40
2017,10,31,14,39,12.40
2017,10,31,14,40,12.40
2017,10,31,14,41,12.30
2017,10,31,14,42,12.30
2017,10,31,14,43,12.30
2017,10,31,14,44,12.30
2017,10,31,14,45,12.30
2017,10,31,14,46,12.30
2017,10,31,14,47,12.30
2017,10,31,14,48,12.30
2017,10,31,14,49,12.40
2017,10,31,14,50,12.40
2017,10,31,14,51,12.40
2017,10,31,14,52,12.50
2017,10,31,14,53,12.50
2017,10,31,14,54,12.60
2017,10,31,14,55,12.60
2017,10,31,14,56,12.60
2017,10,31,14,57,12.60
2017,10,31,14,58,12.60
2017,10,31,14,59,12.60
2017,10,31,15,00,12.60
2017,10,31,15,01,12.60
2017,10,31,15,02,12.60
2017,10,31,15,03,12.60
2017,10,31,15,04,12.60
2017,10,31,15,05,12.50
2017,10,31,15,06,12.50
2017,10,31,15,07,12.50
2017,10,31,15,08,12.50
2017,10,31,15,09,12.40
2017,10,31,15,10,12.40
2017,10,31,15,11,12.40
2017,10,31,15,12,12.30
2017,10,31,15,13,12.30
2017,10,31,15,14,12.30
2017,10,31,15,15,12.20
2017,10,31,15,16,12.20
2017,10,31,15,17,12.20
2017,10,31,15,18,12.20
2017,10,31,15,19,12.20
2017,10,31,15,20,12.30
2017,10,31,15,21,12.30
2017,10,31,15,22,12.30
2017,10,31,15,23,12.30
2017,10,31,15,24,12.30
2017,10,31,15,25,12.30
2017,10,31,15,26,12.40
2017,10,31,15,27,12.50
2017,10,31,15,28,12.50
2017,10,31,15,29,12.60
2017,10,31,15,30,12.60
2017,10,31,15,31,12.60
2017,10,31,15,32,12.70
2017,10,31,15,33,12.70
2017,10,31,15,34,12.70
2017,10,31,15,35,12.70
2017,10,31,15,36,12.70
2017,10,31,15,37,12.70
2017,10,31,15,38,12.80
2017,10,31,15,39,12.80
2017,10,31,15,40,12.80
2017,10,31,15,41,12.80
2017,10,31,15,42,12.80
2017,10,31,15,43,12.80
2017,10,31,15,44,12.80
2017,10,31,15,45,12.80
2017,10,31,15,46,12.80
2017,10,31,15,47,12.80
2017,10,31,15,48,12.80
2017,10,31,15,49,12.80
2017,10,31,15,50,12.80
2017,10,31,15,51,12.80
2017,10,31,15,52,12.80
2017,10,31,15,53,12.80
2017,10,31,15,54,12.80
2017,10,31,15,55,12.80
2017,10,31,15,56,12.80
2017,10,31,15,57,12.70
2017,10,31,15,58,12.60
2017,10,31,15,59,12.50
2017,10,31,16,00,12.50
2017,10,31,16,01,12.40
2017,10,31,16,02,12.30
2017,10,31,16,03,12.20
2017,10,31,16,04,12.10
2017,10,31,16,05,12.00
2017,10,31,16,06,11.90
2017,10,31,16,07,11.80
2017,10,31,16,08,11.70
2017,10,31,16,09,11.60
2017,10,31,16,10,11.50
2017,10,31,16,11,11.40
2017,10,31,16,12,11.40
2017,10,31,16,13,11.30
2017,10,31,16,14,11.20
2017,10,31,16,15,11.20
2017,10,31,16,16,11.20
2017,10,31,16,17,11.20
2017,10,31,16,18,11.20
2017,10,31,16,19,11.20
2017,10,31,16,20,11.20
2017,10,31,16,21,11.20
2017,10,31,16,22,11.20
2017,10,31,16,23,11.10
2017,10,31,16,24,11.10
2017,10,31,16,25,11.10
2017,10,31,16,26,11.10
2017,10,31,16,27,11.10
2017,10,31,16,28,11.10
2017,10,31,16,29,11.10
2017,10,31,16,30,11.10
2017,10,31,16,31,11.20
2017,10,31,16,32,11.20
2017,10,31,16,33,11.20
2017,10,31,16,34,11.20
2017,10,31,16,35,11.20
2017,10,31,16,36,11.20
2017,10,31,16,37,11.20
2017,10,31,16,38,11.20
2017,10,31,16,39,11.20
2017,10,31,16,40,11.20
2017,10,31,16,41,11.20
2017,10,31,16,42,11.20
2017,10,31,16,43,11.20
2017,10,31,16,44,11.20
2017,10,31,16,45,11.10
2017,10,31,16,46,11.10
2017,10,31,16,47,11.10
2017,10,31,16,48,11.10
2017,10,31,16,49,11.10
2017,10,31,16,50,11.00
2017,10,31,16,51,11.00
2017,10,31,16,52,11.00
2017,10,31,16,53,10.90
2017,10,31,16,54,10.90
2017,10,31,16,55,10.80
2017,10,31,16,56,10.70
2017,10,31,16,57,10.50
2017,10,31,16,58,10.40
2017,10,31,16,59,10.30
2017,10,31,17,00,10.20
2017,10,31,17,01,10.00
2017,10,31,17,02,9.90
2017,10,31,17,03,9.80
2017,10,31,17,04,9.80
2017,10,31,17,05,9.70
2017,10,31,17,06,9.60
2017,10,31,17,07,9.60
2017,10,31,17,08,9.60
2017,10,31,17,09,9.50
2017,10,31,17,10,9.50
2017,10,31,17,11,9.40
2017,10,31,17,12,9.40
2017,10,31,17,13,9.40
2017,10,31,17,14,9.30
2017,10,31,17,15,9.30
2017,10,31,17,16,9.20
2017,10,31,17,17,9.20
2017,10,31,17,18,9.10
2017,10,31,17,19,9.10
2017,10,31,17,20,9.00
2017,10,31,17,21,9.00
2017,10,31,17,22,9.00
2017,10,31,17,23,9.00
2017,10,31,17,24,8.90
2017,10,31,17,25,8.90
2017,10,31,17,26,8.90
2017,10,31,17,27,9.00
2017,10,31,17,28,9.00
2017,10,31,17,29,9.00
2017,10,31,17,30,9.00
2017,10,31,17,31,9.00
2017,10,31,17,32,9.00
2017,10,31,17,33,9.00
2017,10,31,17,34,9.00
2017,10,31,17,35,9.00
2017,10,31,17,36,9.00
2017,10,31,17,37,9.00
2017,10,31,17,38,9.00
2017,10,31,17,39,9.00
2017,10,31,17,40,9.00
2017,10,31,17,41,9.00
2017,10,31,17,42,9.00
2017,10,31,17,43,9.00
2017,10,31,17,44,9.00
2017,10,31,17,45,9.00
2017,10,31,17,46,9.00
2017,10,31,17,47,9.00
2017,10,31,17,48,9.00
2017,10,31,17,49,8.90
2017,10,31,17,50,8.90
2017,10,31,17,51,8.90